ロングモア彗星

77P/Longmore (2023)

English version
Home page
Updated on September 2, 2023

---------------------------------------------------------------------

・ プロフィール

・ 写真集

・ 軌道要素

Epoch 2023 Feb. 25.0 TT = JDT 2460000.5
T 2023 Apr. 3.13114 TT                                  Rudenko
q   2.3487635            (2000.0)            P               Q
n   0.14286816     Peri.  196.73448     -0.85912947     +0.50087608
a   3.6239240      Node    14.76809     -0.40958418     -0.54999977
e   0.3518729      Incl.   24.31894     -0.30681811     -0.66829889
P   6.90
>From 2287 observations 1975 Aug. 11-2023 Mar. 20, mean residual 0".8.
     Nongravitational parameters A1 = +0.06, A2 = -0.0472.

・ 星図

・ 光度変化

        H = 14.0  G = 0.15               [    ,-427]  (              〜2022年 1月31日)
        m1 = 4.0 + 5 logΔ + 25.0 log r  [-427, 445]  (2022年 1月31日〜2024年 6月21日)
        H = 14.0  G = 0.15               [ 445,    ]  (2024年 6月21日〜              )

---------------------------------------------------------------------

軌道要素はM.P.E.C. 2023-F81に掲載されたものです。
星図はステラナビゲータ Ver.10 (アストロアーツ) で作成したものです。
光度グラフはComet for Windowsで作成したものです。

---------------------------------------------------------------------

Copyright(C) Seiichi Yoshida (comet@aerith.net). All rights reserved.